| time (UTC) | temp F | wind direction | speed MPH | gust MPH | rain 1hr in | rain 24hr in | rain mn in | humidity % | barometer mb |
| 20260902222908 | 54 | 128 | 6.0 | 16.0 | 0.07 | 0.02 | 0.02 | 97 | 1001.7 |
| 20260902222406 | 54 | 150 | 9.0 | 14.0 | 0.07 | 0.01 | 0.01 | 96 | 1001.6 |
| 20260902221905 | 55 | 125 | 6.0 | 13.0 | 0.02 | 0.00 | 0.00 | 95 | 1001.9 |
| 20260902221404 | 55 | 130 | 6.0 | 13.0 | 0.00 | 0.00 | 0.00 | 94 | 1002.0 |
| 20260902220900 | 56 | 147 | 5.0 | 14.0 | 0.00 | 0.00 | 0.00 | 92 | 1001.9 |
| 20260902220400 | 56 | 134 | 6.0 | 11.0 | 0.00 | 0.00 | 0.00 | 92 | 1001.7 |
| 20260902215855 | 57 | 136 | 7.0 | 14.0 | 0.00 | 0.00 | 0.00 | 90 | 1001.6 |
| 20260902215351 | 57 | 136 | 7.0 | 13.0 | 0.00 | 0.00 | 0.00 | 87 | 1001.5 |
| 20260902214846 | 59 | 106 | 8.0 | 12.0 | 0.00 | 0.00 | 0.00 | 83 | 1001.5 |
| 20260902214345 | 59 | 124 | 5.0 | 14.0 | 0.00 | 0.00 | 0.00 | 80 | 1001.4 |
| 20260902213840 | 59 | 151 | 6.0 | 16.0 | 0.00 | 0.00 | 0.00 | 79 | 1001.4 |
| 20260902213336 | 59 | 164 | 6.0 | 13.0 | 0.00 | 0.00 | 0.00 | 82 | 1001.8 |
| 20260902212834 | 59 | 170 | 7.0 | 21.0 | 0.00 | 0.00 | 0.00 | 80 | 1001.5 |
| 20260902212331 | 60 | 135 | 8.0 | 13.0 | 0.00 | 0.00 | 0.00 | 77 | 1001.6 |
| 20260902211827 | 62 | 136 | 4.0 | 15.0 | 0.00 | 0.00 | 0.00 | 74 | 1001.5 |
| 20260902211322 | 62 | 136 | 6.0 | 11.0 | 0.00 | 0.00 | 0.00 | 73 | 1001.3 |
| 20260902210817 | 62 | 165 | 5.0 | 15.0 | 0.00 | 0.00 | 0.00 | 72 | 1001.8 |
| 20260902210312 | 63 | 137 | 6.0 | 9.0 | 0.00 | 0.00 | 0.00 | 74 | 1001.8 |
| 20260902205810 | 62 | 169 | 10.0 | 12.0 | 0.00 | 0.00 | 0.00 | 74 | 1002.0 |
| 20260902205306 | 62 | 131 | 6.0 | 11.0 | 0.00 | 0.00 | 0.00 | 74 | 1002.2 |
| 20260902204800 | 63 | 169 | 2.0 | 9.0 | 0.00 | 0.00 | 0.00 | 74 | 1002.1 |
| 20260902204255 | 63 | 134 | 4.0 | 10.0 | 0.00 | 0.00 | 0.00 | 74 | 1002.2 |
| 20260902203750 | 63 | 129 | 5.0 | 7.0 | 0.00 | 0.00 | 0.00 | 75 | 1002.2 |
| 20260902203245 | 63 | 162 | 5.0 | 9.0 | 0.00 | 0.00 | 0.00 | 75 | 1002.3 |
| 20260902202740 | 63 | 128 | 3.0 | 10.0 | 0.00 | 0.00 | 0.00 | 75 | 1002.3 |
| 20260902202236 | 63 | 134 | 6.0 | 13.0 | 0.00 | 0.00 | 0.00 | 77 | 1002.5 |
| 20260902201733 | 63 | 136 | 3.0 | 11.0 | 0.00 | 0.00 | 0.00 | 77 | 1002.6 |
| 20260902201232 | 63 | 123 | 3.0 | 12.0 | 0.00 | 0.00 | 0.00 | 77 | 1002.5 |
| 20260902200727 | 63 | 113 | 3.0 | 15.0 | 0.00 | 0.00 | 0.00 | 76 | 1002.8 |
| 20260902200223 | 62 | 170 | 6.0 | 10.0 | 0.00 | 0.00 | 0.00 | 76 | 1002.9 |
| 20260902195718 | 63 | 157 | 9.0 | 14.0 | 0.00 | 0.00 | 0.00 | 75 | 1002.7 |
| 20260902195217 | 63 | 133 | 4.0 | 11.0 | 0.00 | 0.00 | 0.00 | 74 | 1002.8 |
| 20260902194717 | 63 | 145 | 3.0 | 8.0 | 0.00 | 0.00 | 0.00 | 75 | 1002.9 |
| 20260902194212 | 63 | 156 | 4.0 | 12.0 | 0.00 | 0.00 | 0.00 | 74 | 1003.2 |
| 20260902193708 | 63 | 136 | 6.0 | 11.0 | 0.00 | 0.00 | 0.00 | 75 | 1002.8 |
| 20260902193203 | 63 | 108 | 5.0 | 8.0 | 0.00 | 0.00 | 0.00 | 76 | 1002.7 |
| 20260902192701 | 63 | 130 | 3.0 | 10.0 | 0.00 | 0.00 | 0.00 | 76 | 1002.9 |
| 20260902192200 | 63 | 136 | 4.0 | 9.0 | 0.00 | 0.00 | 0.00 | 75 | 1003.2 |
| 20260902191655 | 63 | 141 | 6.0 | 12.0 | 0.00 | 0.00 | 0.00 | 76 | 1002.9 |
| 20260902191149 | 62 | 124 | 5.0 | 11.0 | 0.00 | 0.00 | 0.00 | 77 | 1002.8 |
| 20260902190645 | 62 | 154 | 5.0 | 12.0 | 0.00 | 0.00 | 0.00 | 77 | 1003.3 |
| 20260902190140 | 63 | 138 | 4.0 | 13.0 | 0.00 | 0.00 | 0.00 | 77 | 1002.9 |
| 20260902185636 | 63 | 139 | 4.0 | 10.0 | 0.00 | 0.00 | 0.00 | 77 | 1002.8 |
| 20260902185131 | 62 | 167 | 7.0 | 10.0 | 0.00 | 0.00 | 0.00 | 76 | 1003.1 |
| 20260902184626 | 62 | 139 | 4.0 | 9.0 | 0.00 | 0.00 | 0.00 | 78 | 1002.9 |
| 20260902184122 | 61 | 176 | 6.0 | 14.0 | 0.00 | 0.00 | 0.00 | 79 | 1003.2 |
| 20260902183618 | 61 | 176 | 8.0 | 12.0 | 0.00 | 0.00 | 0.00 | 79 | 1003.4 |
| 20260902183114 | 60 | 169 | 6.0 | 9.0 | 0.00 | 0.00 | 0.00 | 81 | 1003.4 |
| 20260902182610 | 60 | 165 | 6.0 | 12.0 | 0.00 | 0.00 | 0.00 | 81 | 1003.4 |
| 20260902182106 | 60 | 165 | 6.0 | 12.0 | 0.00 | 0.00 | 0.00 | 81 | 1003.3 |
| 20260902181602 | 60 | 146 | 6.0 | 9.0 | 0.00 | 0.00 | 0.00 | 81 | 1003.4 |
| 20260902181101 | 60 | 126 | 4.0 | 11.0 | 0.00 | 0.00 | 0.00 | 82 | 1003.4 |
| 20260902180601 | 60 | 173 | 6.0 | 11.0 | 0.00 | 0.00 | 0.00 | 82 | 1003.3 |
| 20260902180057 | 60 | 157 | 10.0 | 12.0 | 0.00 | 0.00 | 0.00 | 82 | 1003.4 |
| 20260902175556 | 60 | 114 | 3.0 | 15.0 | 0.00 | 0.00 | 0.00 | 82 | 1003.7 |
| 20260902175052 | 59 | 102 | 7.0 | 13.0 | 0.00 | 0.00 | 0.00 | 82 | 1003.8 |
| 20260902174548 | 59 | 120 | 6.0 | 12.0 | 0.00 | 0.00 | 0.00 | 82 | 1003.8 |
| 20260902174044 | 59 | 79 | 1.0 | 8.0 | 0.00 | 0.00 | 0.00 | 82 | 1004.0 |
| 20260902173544 | 59 | 82 | 6.0 | 8.0 | 0.00 | 0.00 | 0.00 | 82 | 1004.1 |
| 20260902173039 | 59 | 149 | 3.0 | 8.0 | 0.00 | 0.00 | 0.00 | 82 | 1004.4 |
| 20260902172533 | 59 | 116 | 6.0 | 9.0 | 0.00 | 0.00 | 0.00 | 82 | 1004.1 |
| 20260902172028 | 59 | 123 | 5.0 | 16.0 | 0.00 | 0.00 | 0.00 | 83 | 1004.3 |
| 20260902171524 | 59 | 155 | 4.0 | 8.0 | 0.00 | 0.00 | 0.00 | 84 | 1004.5 |
| 20260902171019 | 58 | 145 | 3.0 | 11.0 | 0.00 | 0.00 | 0.00 | 85 | 1004.3 |
| 20260902170514 | 58 | 130 | 4.0 | 10.0 | 0.00 | 0.00 | 0.00 | 85 | 1004.5 |
| 20260902170010 | 58 | 59 | 5.0 | 9.0 | 0.00 | 0.00 | 0.00 | 85 | 1004.3 |
| 20260902165509 | 58 | 125 | 4.0 | 9.0 | 0.00 | 0.00 | 0.00 | 85 | 1004.5 |
| 20260902165004 | 58 | 134 | 5.0 | 7.0 | 0.00 | 0.00 | 0.00 | 86 | 1004.3 |
| 20260902164459 | 58 | 114 | 7.0 | 9.0 | 0.00 | 0.00 | 0.00 | 86 | 1004.3 |
| 20260902163957 | 58 | 125 | 4.0 | 9.0 | 0.00 | 0.00 | 0.00 | 85 | 1004.4 |
| 20260902163453 | 58 | 144 | 5.0 | 11.0 | 0.00 | 0.00 | 0.00 | 86 | 1004.4 |
| 20260902162951 | 58 | 128 | 4.0 | 8.0 | 0.00 | 0.00 | 0.00 | 87 | 1004.4 |
| 20260902162446 | 58 | 107 | 2.0 | 6.0 | 0.00 | 0.00 | 0.00 | 87 | 1004.4 |
| 20260902161946 | 58 | 148 | 3.0 | 13.0 | 0.00 | 0.00 | 0.00 | 87 | 1004.4 |
| 20260902161441 | 58 | 132 | 3.0 | 8.0 | 0.00 | 0.00 | 0.00 | 87 | 1004.7 |
| 20260902160937 | 59 | 162 | 3.0 | 6.0 | 0.00 | 0.00 | 0.00 | 87 | 1004.7 |
| 20260902160432 | 59 | 124 | 5.0 | 8.0 | 0.00 | 0.00 | 0.00 | 86 | 1004.6 |
| 20260902155931 | 59 | 140 | 2.0 | 6.0 | 0.00 | 0.00 | 0.00 | 87 | 1004.6 |
| 20260902155426 | 58 | 177 | 5.0 | 7.0 | 0.00 | 0.00 | 0.00 | 88 | 1004.8 |
| 20260902154920 | 59 | 39 | 0.0 | 5.0 | 0.00 | 0.00 | 0.00 | 88 | 1005.0 |
| 20260902154416 | 58 | 150 | 4.0 | 7.0 | 0.00 | 0.00 | 0.00 | 89 | 1004.8 |
| 20260902153915 | 58 | 170 | 5.0 | 8.0 | 0.00 | 0.00 | 0.00 | 88 | 1004.7 |
| 20260902153414 | 58 | 143 | 3.0 | 7.0 | 0.00 | 0.00 | 0.00 | 89 | 1004.6 |
| 20260902152909 | 58 | 106 | 4.0 | 7.0 | 0.00 | 0.00 | 0.00 | 89 | 1004.7 |
| 20260902152406 | 58 | 108 | 6.0 | 10.0 | 0.00 | 0.00 | 0.00 | 88 | 1004.8 |
| 20260902151901 | 58 | 123 | 5.0 | 10.0 | 0.00 | 0.00 | 0.00 | 89 | 1004.6 |
| 20260902151356 | 57 | 139 | 3.0 | 14.0 | 0.00 | 0.00 | 0.00 | 91 | 1004.7 |
| 20260902150850 | 57 | 177 | 2.0 | 16.0 | 0.00 | 0.00 | 0.00 | 91 | 1004.8 |
| 20260902150347 | 57 | 91 | 2.0 | 5.0 | 0.00 | 0.00 | 0.00 | 92 | 1004.9 |
| 20260902145847 | 56 | 172 | 1.0 | 6.0 | 0.00 | 0.00 | 0.00 | 92 | 1005.1 |
| 20260902145342 | 56 | 117 | 2.0 | 5.0 | 0.00 | 0.00 | 0.00 | 93 | 1005.2 |
| 20260902144837 | 56 | 100 | 4.0 | 4.0 | 0.00 | 0.00 | 0.00 | 94 | 1005.2 |
| 20260902144333 | 56 | 164 | 4.0 | 5.0 | 0.00 | 0.00 | 0.00 | 94 | 1005.4 |
| 20260902143828 | 55 | 159 | 4.0 | 6.0 | 0.00 | 0.00 | 0.00 | 94 | 1005.3 |
| 20260902143327 | 55 | 105 | 4.0 | 4.0 | 0.00 | 0.00 | 0.00 | 95 | 1005.4 |
| 20260902142824 | 55 | 92 | 5.0 | 5.0 | 0.00 | 0.00 | 0.00 | 96 | 1005.5 |
| 20260902142320 | 55 | 38 | 1.0 | 4.0 | 0.00 | 0.00 | 0.00 | 96 | 1005.3 |
| 20260902141814 | 55 | 185 | 3.0 | 5.0 | 0.00 | 0.00 | 0.00 | 96 | 1005.4 |
| 20260902141310 | 55 | 38 | 0.0 | 3.0 | 0.00 | 0.00 | 0.00 | 96 | 1005.3 |
| 20260902140809 | 55 | 141 | 2.0 | 5.0 | 0.00 | 0.00 | 0.00 | 96 | 1005.4 |
| 20260902140305 | 55 | 103 | 2.0 | 4.0 | 0.00 | 0.00 | 0.00 | 96 | 1005.4 |
| 20260902135804 | 55 | 176 | 4.0 | 5.0 | 0.00 | 0.00 | 0.00 | 96 | 1005.6 |
| 20260902135300 | 55 | 116 | 2.0 | 7.0 | 0.00 | 0.00 | 0.00 | 96 | 1005.3 |
| 20260902134759 | 55 | 166 | 5.0 | 5.0 | 0.00 | 0.00 | 0.00 | 96 | 1005.3 |
| 20260902134255 | 54 | 120 | 3.0 | 6.0 | 0.00 | 0.00 | 0.00 | 97 | 1005.4 |
| 20260902133750 | 54 | 162 | 2.0 | 12.0 | 0.00 | 0.00 | 0.00 | 97 | 1005.4 |
| 20260902133249 | 55 | 127 | 4.0 | 7.0 | 0.00 | 0.00 | 0.00 | 97 | 1005.4 |
| 20260902132744 | 55 | 158 | 5.0 | 9.0 | 0.00 | 0.00 | 0.00 | 97 | 1005.5 |
| 20260902132240 | 54 | 160 | 5.0 | 11.0 | 0.00 | 0.00 | 0.00 | 97 | 1005.4 |
| 20260902131736 | 54 | 86 | 2.0 | 5.0 | 0.00 | 0.00 | 0.00 | 97 | 1005.5 |
| 20260902131232 | 54 | 12 | 2.0 | 4.0 | 0.00 | 0.00 | 0.00 | 97 | 1005.4 |
| 20260902130731 | 54 | 98 | 3.0 | 6.0 | 0.00 | 0.00 | 0.00 | 97 | 1005.4 |
| 20260902130227 | 54 | 18 | 4.0 | 5.0 | 0.00 | 0.00 | 0.00 | 97 | 1005.3 |
| 20260902125722 | 54 | 108 | 3.0 | 6.0 | 0.00 | 0.00 | 0.00 | 96 | 1005.4 |
| 20260902125214 | 54 | 68 | 0.0 | 2.0 | 0.00 | 0.00 | 0.00 | 96 | 1005.5 |
| 20260902124710 | 54 | 121 | 2.0 | 6.0 | 0.00 | 0.00 | 0.00 | 96 | 1005.5 |
| 20260902124209 | 55 | 175 | 0.0 | 9.0 | 0.00 | 0.00 | 0.00 | 95 | 1005.7 |
| 20260902123704 | 54 | 279 | 0.0 | 3.0 | 0.00 | 0.00 | 0.00 | 95 | 1005.6 |
| 20260902123201 | 55 | 145 | 2.0 | 5.0 | 0.00 | 0.00 | 0.00 | 94 | 1005.5 |
| 20260902122659 | 55 | 168 | 2.0 | 4.0 | 0.00 | 0.00 | 0.00 | 94 | 1005.7 |
| 20260902122156 | 55 | 348 | 4.0 | 6.0 | 0.00 | 0.00 | 0.00 | 94 | 1005.8 |
| 20260902121650 | 55 | 352 | 3.0 | 6.0 | 0.00 | 0.00 | 0.00 | 93 | 1005.7 |
| 20260902121144 | 55 | 0 | 1.0 | 4.0 | 0.00 | 0.00 | 0.00 | 92 | 1005.8 |
| 20260902120641 | 55 | 39 | 4.0 | 4.0 | 0.00 | 0.00 | 0.00 | 92 | 1005.7 |
| 20260902120137 | 55 | 135 | 3.0 | 3.0 | 0.00 | 0.00 | 0.00 | 92 | 1006.0 |
| 20260902115631 | 55 | 18 | 0.0 | 2.0 | 0.00 | 0.00 | 0.00 | 91 | 1005.9 |
| 20260902115127 | 55 | 87 | 4.0 | 8.0 | 0.00 | 0.00 | 0.00 | 90 | 1006.0 |
| 20260902114623 | 56 | 80 | 2.0 | 6.0 | 0.00 | 0.00 | 0.00 | 90 | 1005.8 |
| 20260902114123 | 56 | 52 | 2.0 | 4.0 | 0.00 | 0.00 | 0.00 | 90 | 1006.2 |
| 20260902113613 | 55 | 192 | 1.0 | 2.0 | 0.00 | 0.00 | 0.00 | 91 | 1006.0 |
| 20260902113108 | 55 | 36 | 1.0 | 4.0 | 0.00 | 0.00 | 0.00 | 90 | 1006.3 |
| 20260902112604 | 55 | 28 | 2.0 | 5.0 | 0.00 | 0.00 | 0.00 | 90 | 1006.3 |
| 20260902112100 | 55 | 307 | 0.0 | 3.0 | 0.00 | 0.00 | 0.00 | 89 | 1006.5 |
| 20260902111556 | 56 | 335 | 2.0 | 2.0 | 0.00 | 0.00 | 0.00 | 89 | 1006.6 |
| 20260902111051 | 57 | 29 | 4.0 | 5.0 | 0.00 | 0.00 | 0.00 | 87 | 1006.5 |
| 20260902110547 | 57 | 128 | 3.0 | 7.0 | 0.00 | 0.00 | 0.00 | 86 | 1006.5 |
| 20260902110043 | 57 | 148 | 4.0 | 8.0 | 0.00 | 0.00 | 0.00 | 86 | 1006.5 |
| 20260902105538 | 57 | 109 | 2.0 | 8.0 | 0.00 | 0.00 | 0.00 | 87 | 1006.2 |
| 20260902105037 | 56 | 138 | 4.0 | 8.0 | 0.00 | 0.00 | 0.00 | 87 | 1006.5 |
| 20260902104533 | 56 | 107 | 3.0 | 9.0 | 0.00 | 0.00 | 0.00 | 88 | 1006.5 |
| 20260902104032 | 55 | 265 | 2.0 | 3.0 | 0.00 | 0.00 | 0.00 | 89 | 1006.5 |
| 20260902103529 | 56 | 326 | 1.0 | 3.0 | 0.00 | 0.00 | 0.00 | 90 | 1006.3 |
| 20260902103024 | 56 | 110 | 0.0 | 3.0 | 0.00 | 0.00 | 0.00 | 89 | 1006.5 |
| 20260902102520 | 56 | 353 | 1.0 | 3.0 | 0.00 | 0.00 | 0.00 | 89 | 1006.3 |
| 20260902102016 | 56 | 125 | 1.0 | 3.0 | 0.00 | 0.00 | 0.00 | 90 | 1006.4 |
| 20260902101512 | 56 | 342 | 2.0 | 4.0 | 0.00 | 0.00 | 0.00 | 90 | 1006.5 |
| 20260902101010 | 56 | 336 | 2.0 | 4.0 | 0.00 | 0.00 | 0.00 | 89 | 1006.5 |
| 20260902100505 | 55 | 231 | 1.0 | 3.0 | 0.00 | 0.00 | 0.00 | 91 | 1006.7 |
| 20260902100000 | 56 | 173 | 0.0 | 6.0 | 0.00 | 0.00 | 0.00 | 91 | 1006.4 |
| 20260902095454 | 56 | 312 | 1.0 | 3.0 | 0.00 | 0.00 | 0.00 | 90 | 1006.7 |
| 20260902094954 | 56 | 202 | 4.0 | 8.0 | 0.00 | 0.00 | 0.00 | 88 | 1006.5 |
| 20260902094449 | 56 | 124 | 2.0 | 6.0 | 0.00 | 0.00 | 0.00 | 90 | 1006.6 |
| 20260902093944 | 56 | 221 | 3.0 | 6.0 | 0.00 | 0.00 | 0.00 | 90 | 1006.5 |
| 20260902093439 | 56 | 119 | 6.0 | 7.0 | 0.00 | 0.00 | 0.00 | 90 | 1006.7 |
| 20260902092938 | 55 | 123 | 6.0 | 14.0 | 0.00 | 0.00 | 0.00 | 93 | 1006.7 |
| 20260902092434 | 54 | 132 | 4.0 | 5.0 | 0.00 | 0.00 | 0.00 | 96 | 1007.0 |
| 20260902091933 | 54 | 96 | 2.0 | 4.0 | 0.00 | 0.00 | 0.00 | 98 | 1006.7 |
| 20260902091429 | 53 | 356 | 3.0 | 4.0 | 0.00 | 0.00 | 0.00 | 99 | 1007.0 |
| 20260902090926 | 53 | 109 | 5.0 | 10.0 | 0.00 | 0.00 | 0.00 | 99 | 1007.0 |
| 20260902090425 | 52 | 113 | 3.0 | 4.0 | 0.00 | 0.00 | 0.00 | 99 | 1007.1 |
| 20260902085924 | 52 | 70 | 1.0 | 3.0 | 0.00 | 0.00 | 0.00 | 99 | 1007.1 |
| 20260902085419 | 52 | 343 | 2.0 | 2.0 | 0.00 | 0.00 | 0.00 | 99 | 1007.5 |
| 20260902084914 | 52 | 54 | 1.0 | 2.0 | 0.00 | 0.00 | 0.00 | 99 | 1007.3 |
| 20260902084411 | 52 | 66 | 0.0 | 2.0 | 0.00 | 0.00 | 0.00 | 99 | 1007.5 |
| 20260902083906 | 52 | 74 | 1.0 | 3.0 | 0.00 | 0.00 | 0.00 | 98 | 1007.4 |
| 20260902083401 | 53 | 28 | 2.0 | 3.0 | 0.00 | 0.00 | 0.00 | 98 | 1007.5 |
| 20260902082856 | 53 | 31 | 1.0 | 2.0 | 0.00 | 0.00 | 0.00 | 98 | 1007.7 |
| 20260902082352 | 53 | 82 | 2.0 | 2.0 | 0.00 | 0.00 | 0.00 | 98 | 1007.8 |
| 20260902081848 | 53 | 62 | 1.0 | 3.0 | 0.00 | 0.00 | 0.00 | 98 | 1007.8 |
| 20260902081344 | 53 | 64 | 0.0 | 2.0 | 0.00 | 0.00 | 0.00 | 97 | 1007.8 |
| 20260902080839 | 53 | 61 | 1.0 | 2.0 | 0.00 | 0.00 | 0.00 | 98 | 1007.7 |
| 20260902080335 | 53 | 50 | 2.0 | 3.0 | 0.00 | 0.00 | 0.00 | 97 | 1007.7 |
| 20260902075834 | 53 | 31 | 2.0 | 2.0 | 0.00 | 0.00 | 0.00 | 97 | 1007.6 |
| 20260902075331 | 53 | 45 | 2.0 | 3.0 | 0.00 | 0.00 | 0.00 | 97 | 1008.0 |
| 20260902074826 | 54 | 30 | 2.0 | 2.0 | 0.00 | 0.00 | 0.00 | 97 | 1007.8 |
| 20260902074321 | 53 | 93 | 2.0 | 2.0 | 0.00 | 0.00 | 0.00 | 96 | 1007.9 |
| 20260902073816 | 53 | 54 | 2.0 | 2.0 | 0.00 | 0.00 | 0.00 | 96 | 1007.9 |
| 20260902073312 | 54 | 51 | 2.0 | 2.0 | 0.00 | 0.00 | 0.00 | 96 | 1007.8 |
| 20260902072808 | 54 | 37 | 2.0 | 2.0 | 0.00 | 0.00 | 0.00 | 96 | 1008.1 |
| 20260902072309 | 54 | 32 | 2.0 | 3.0 | 0.00 | 0.00 | 0.00 | 96 | 1008.0 |
| 20260902071800 | 54 | 48 | 3.0 | 4.0 | 0.00 | 0.00 | 0.00 | 96 | 1007.9 |
| 20260902071255 | 54 | 43 | 2.0 | 3.0 | 0.00 | 0.00 | 0.00 | 96 | 1007.8 |
| 20260902070751 | 54 | 31 | 2.0 | 2.0 | 0.00 | 0.00 | 0.00 | 95 | 1008.0 |
| 20260902070250 | 54 | 46 | 2.0 | 2.0 | 0.00 | 0.00 | 0.00 | 95 | 1008.2 |
| 20260902065749 | 54 | 30 | 1.0 | 2.0 | 0.00 | 0.00 | 0.00 | 95 | 1008.1 |
| 20260902065245 | 54 | 85 | 1.0 | 3.0 | 0.00 | 0.00 | 0.00 | 94 | 1008.1 |
| 20260902064740 | 55 | 8 | 1.0 | 3.0 | 0.00 | 0.00 | 0.00 | 94 | 1008.1 |
| 20260902064236 | 55 | 56 | 2.0 | 2.0 | 0.00 | 0.00 | 0.00 | 94 | 1008.2 |
| 20260902063732 | 55 | 64 | 2.0 | 2.0 | 0.00 | 0.00 | 0.00 | 94 | 1008.2 |
| 20260902063231 | 55 | 51 | 1.0 | 2.0 | 0.00 | 0.00 | 0.00 | 94 | 1008.3 |
| 20260902062725 | 55 | 54 | 2.0 | 2.0 | 0.00 | 0.00 | 0.00 | 95 | 1008.3 |
| 20260902062221 | 55 | 83 | 1.0 | 3.0 | 0.00 | 0.00 | 0.00 | 95 | 1008.2 |
| 20260902061719 | 55 | 27 | 1.0 | 2.0 | 0.00 | 0.00 | 0.00 | 94 | 1008.4 |
| 20260902061215 | 55 | 64 | 1.0 | 2.0 | 0.00 | 0.00 | 0.00 | 94 | 1008.5 |
| 20260902060712 | 55 | 103 | 0.0 | 1.0 | 0.00 | 0.00 | 0.00 | 93 | 1008.3 |
| 20260902060208 | 55 | 77 | 0.0 | 2.0 | 0.00 | 0.00 | 0.00 | 93 | 1008.5 |
| 20260902055703 | 56 | 50 | 1.0 | 1.0 | 0.00 | 0.00 | 0.00 | 93 | 1008.4 |
| 20260902055159 | 56 | 89 | 0.0 | 1.0 | 0.00 | 0.00 | 0.00 | 92 | 1008.6 |
| 20260902054654 | 56 | 63 | 1.0 | 2.0 | 0.00 | 0.00 | 0.00 | 92 | 1008.7 |
| 20260902054149 | 57 | 44 | 2.0 | 2.0 | 0.00 | 0.00 | 0.00 | 91 | 1008.7 |
| 20260902053644 | 57 | 82 | 1.0 | 2.0 | 0.00 | 0.00 | 0.00 | 90 | 1008.7 |
| 20260902053139 | 57 | 92 | 1.0 | 2.0 | 0.00 | 0.00 | 0.00 | 90 | 1008.8 |
| 20260902052638 | 57 | 68 | 0.0 | 2.0 | 0.00 | 0.00 | 0.00 | 90 | 1008.9 |
| 20260902052134 | 57 | 57 | 1.0 | 1.0 | 0.00 | 0.00 | 0.00 | 90 | 1008.7 |
| 20260902051633 | 57 | 113 | 0.0 | 2.0 | 0.00 | 0.00 | 0.00 | 89 | 1008.7 |
| 20260902051127 | 57 | 77 | 1.0 | 2.0 | 0.00 | 0.00 | 0.00 | 89 | 1008.7 |
| 20260902050622 | 58 | 60 | 1.0 | 2.0 | 0.00 | 0.00 | 0.00 | 89 | 1008.7 |
| 20260902050117 | 58 | 47 | 2.0 | 2.0 | 0.00 | 0.00 | 0.00 | 88 | 1008.9 |
| 20260902045613 | 57 | 104 | 1.0 | 2.0 | 0.00 | 0.00 | 0.00 | 89 | 1009.0 |
| 20260902045109 | 57 | 111 | 1.0 | 2.0 | 0.00 | 0.00 | 0.00 | 89 | 1009.0 |
| 20260902044609 | 57 | 97 | 1.0 | 1.0 | 0.00 | 0.00 | 0.00 | 90 | 1009.1 |
| 20260902044104 | 57 | 49 | 0.0 | 1.0 | 0.00 | 0.00 | 0.00 | 90 | 1009.0 |
| 20260902043600 | 57 | 45 | 1.0 | 2.0 | 0.00 | 0.00 | 0.00 | 91 | 1009.2 |
| 20260902043054 | 57 | 68 | 0.0 | 1.0 | 0.00 | 0.00 | 0.00 | 91 | 1009.0 |
| 20260902042554 | 57 | 37 | 0.0 | 2.0 | 0.00 | 0.00 | 0.00 | 91 | 1009.1 |
| 20260902042050 | 57 | 32 | 2.0 | 2.0 | 0.00 | 0.00 | 0.00 | 91 | 1009.0 |
| 20260902041548 | 57 | 25 | 1.0 | 2.0 | 0.00 | 0.00 | 0.00 | 90 | 1009.1 |
| 20260902041043 | 58 | 54 | 1.0 | 2.0 | 0.00 | 0.00 | 0.00 | 89 | 1009.1 |
| 20260902040538 | 58 | 87 | 1.0 | 2.0 | 0.00 | 0.00 | 0.00 | 89 | 1008.9 |
| 20260902040032 | 58 | 71 | 1.0 | 2.0 | 0.00 | 0.00 | 0.00 | 89 | 1008.9 |
| 20260902035526 | 58 | 73 | 1.0 | 2.0 | 0.00 | 0.00 | 0.00 | 89 | 1009.1 |
| 20260902035021 | 58 | 64 | 0.0 | 1.0 | 0.00 | 0.00 | 0.00 | 89 | 1009.0 |
| 20260902034515 | 58 | 50 | 2.0 | 2.0 | 0.00 | 0.00 | 0.00 | 87 | 1009.2 |
| 20260902034014 | 59 | 56 | 1.0 | 2.0 | 0.00 | 0.00 | 0.00 | 87 | 1009.0 |
| 20260902033513 | 59 | 69 | 2.0 | 2.0 | 0.00 | 0.00 | 0.00 | 87 | 1008.8 |
| 20260902033008 | 59 | 81 | 1.0 | 1.0 | 0.00 | 0.00 | 0.00 | 87 | 1009.0 |
| 20260902032502 | 58 | 107 | 2.0 | 2.0 | 0.00 | 0.00 | 0.00 | 88 | 1008.9 |
| 20260902031957 | 59 | 73 | 1.0 | 2.0 | 0.00 | 0.00 | 0.00 | 88 | 1009.0 |
| 20260902031452 | 59 | 89 | 1.0 | 2.0 | 0.00 | 0.00 | 0.00 | 87 | 1008.9 |
| 20260902030948 | 59 | 62 | 1.0 | 2.0 | 0.00 | 0.00 | 0.00 | 87 | 1009.1 |
| 20260902030448 | 59 | 42 | 1.0 | 1.0 | 0.00 | 0.00 | 0.00 | 85 | 1009.2 |
| 20260902025946 | 59 | 95 | 1.0 | 1.0 | 0.00 | 0.00 | 0.00 | 85 | 1009.1 |
| 20260902025442 | 59 | 110 | 1.0 | 2.0 | 0.00 | 0.00 | 0.00 | 85 | 1009.0 |
| 20260902024937 | 59 | 117 | 1.0 | 2.0 | 0.00 | 0.00 | 0.00 | 85 | 1009.0 |
| 20260902024433 | 59 | 103 | 0.0 | 1.0 | 0.00 | 0.00 | 0.00 | 86 | 1009.1 |
| 20260902023933 | 59 | 140 | 0.0 | 1.0 | 0.00 | 0.00 | 0.00 | 85 | 1009.0 |
| 20260902023429 | 59 | 120 | 2.0 | 2.0 | 0.00 | 0.00 | 0.00 | 85 | 1009.1 |
| 20260902022928 | 60 | 66 | 0.0 | 0.0 | 0.00 | 0.00 | 0.00 | 86 | 1009.2 |
| 20260902022423 | 60 | 127 | 1.0 | 2.0 | 0.00 | 0.00 | 0.00 | 85 | 1009.3 |
| 20260902021919 | 59 | 108 | 2.0 | 2.0 | 0.00 | 0.00 | 0.00 | 85 | 1009.2 |
| 20260902021419 | 60 | 105 | 1.0 | 1.0 | 0.00 | 0.00 | 0.00 | 86 | 1009.2 |
| 20260902020914 | 60 | 110 | 3.0 | 3.0 | 0.00 | 0.00 | 0.00 | 87 | 1009.2 |
| 20260902020411 | 60 | 89 | 0.0 | 1.0 | 0.00 | 0.00 | 0.00 | 86 | 1009.3 |
| 20260902015907 | 60 | 109 | 1.0 | 2.0 | 0.00 | 0.00 | 0.00 | 86 | 1009.3 |
| 20260902015402 | 60 | 113 | 2.0 | 2.0 | 0.00 | 0.00 | 0.00 | 86 | 1009.2 |
| 20260902014857 | 60 | 144 | 0.0 | 1.0 | 0.00 | 0.00 | 0.00 | 86 | 1009.2 |
| 20260902014354 | 60 | 135 | 0.0 | 1.0 | 0.00 | 0.00 | 0.00 | 85 | 1009.4 |
| 20260902013853 | 60 | 145 | 0.0 | 2.0 | 0.00 | 0.00 | 0.00 | 86 | 1009.3 |
| 20260902013348 | 60 | 163 | 1.0 | 2.0 | 0.00 | 0.00 | 0.00 | 87 | 1009.3 |
| 20260902012844 | 59 | 145 | 2.0 | 2.0 | 0.00 | 0.00 | 0.00 | 86 | 1009.3 |
| 20260902012339 | 59 | 119 | 2.0 | 2.0 | 0.00 | 0.00 | 0.00 | 86 | 1009.3 |
| 20260902011835 | 59 | 121 | 2.0 | 3.0 | 0.00 | 0.00 | 0.00 | 87 | 1009.3 |
| 20260902011329 | 59 | 130 | 2.0 | 3.0 | 0.00 | 0.00 | 0.00 | 87 | 1009.2 |
| 20260902010829 | 60 | 110 | 2.0 | 2.0 | 0.00 | 0.00 | 0.00 | 87 | 1009.2 |
| 20260902010324 | 60 | 154 | 2.0 | 3.0 | 0.00 | 0.00 | 0.00 | 88 | 1009.2 |
| 20260902005823 | 60 | 118 | 1.0 | 2.0 | 0.00 | 0.00 | 0.00 | 87 | 1009.2 |
| 20260902005323 | 60 | 116 | 2.0 | 2.0 | 0.00 | 0.00 | 0.00 | 87 | 1009.2 |
| 20260902004818 | 60 | 139 | 2.0 | 3.0 | 0.00 | 0.00 | 0.00 | 87 | 1009.2 |
| 20260902004313 | 60 | 123 | 2.0 | 3.0 | 0.00 | 0.00 | 0.00 | 87 | 1009.1 |
| 20260902003808 | 60 | 153 | 4.0 | 4.0 | 0.00 | 0.00 | 0.00 | 86 | 1009.2 |
| 20260902003303 | 60 | 116 | 0.0 | 2.0 | 0.00 | 0.00 | 0.00 | 86 | 1009.1 |
| 20260902002759 | 60 | 124 | 2.0 | 3.0 | 0.00 | 0.00 | 0.00 | 86 | 1009.1 |
| 20260902002258 | 60 | 121 | 2.0 | 3.0 | 0.00 | 0.00 | 0.00 | 86 | 1009.3 |
| 20260902001754 | 60 | 126 | 2.0 | 3.0 | 0.00 | 0.00 | 0.00 | 86 | 1009.3 |
| 20260902001249 | 60 | 132 | 2.0 | 3.0 | 0.00 | 0.00 | 0.00 | 87 | 1009.1 |
| 20260902000749 | 60 | 166 | 0.0 | 3.0 | 0.00 | 0.00 | 0.00 | 87 | 1009.2 |
| 20260902000244 | 60 | 156 | 2.0 | 3.0 | 0.00 | 0.00 | 0.00 | 86 | 1009.3 |
| 20260901235744 | 60 | 125 | 2.0 | 3.0 | 0.00 | 0.00 | 0.00 | 86 | 1009.2 |
| 20260901235240 | 60 | 116 | 2.0 | 4.0 | 0.00 | 0.00 | 0.00 | 86 | 1009.3 |
| 20260901234733 | 61 | 115 | 2.0 | 2.0 | 0.00 | 0.00 | 0.00 | 87 | 1009.2 |
| 20260901234227 | 61 | 137 | 2.0 | 3.0 | 0.00 | 0.00 | 0.00 | 86 | 1009.2 |
| 20260901233722 | 61 | 134 | 2.0 | 2.0 | 0.00 | 0.00 | 0.00 | 87 | 1009.3 |
| 20260901233219 | 61 | 138 | 3.0 | 4.0 | 0.00 | 0.00 | 0.00 | 86 | 1009.1 |
| 20260901232718 | 61 | 72 | 2.0 | 3.0 | 0.00 | 0.00 | 0.00 | 85 | 1009.1 |
| 20260901232214 | 61 | 117 | 3.0 | 3.0 | 0.00 | 0.00 | 0.00 | 86 | 1009.2 |
| 20260901231710 | 61 | 146 | 1.0 | 2.0 | 0.00 | 0.00 | 0.00 | 86 | 1009.1 |
| 20260901231206 | 61 | 139 | 2.0 | 3.0 | 0.00 | 0.00 | 0.00 | 86 | 1009.1 |
| 20260901230701 | 61 | 112 | 0.0 | 2.0 | 0.00 | 0.00 | 0.00 | 86 | 1009.1 |
| 20260901230201 | 61 | 146 | 2.0 | 3.0 | 0.00 | 0.00 | 0.00 | 86 | 1009.2 |
| 20260901225656 | 61 | 130 | 2.0 | 3.0 | 0.00 | 0.00 | 0.00 | 87 | 1009.4 |
| 20260901225151 | 61 | 97 | 1.0 | 4.0 | 0.00 | 0.00 | 0.00 | 86 | 1009.3 |
| 20260901224647 | 61 | 137 | 2.0 | 3.0 | 0.00 | 0.00 | 0.00 | 88 | 1009.2 |
| 20260901224143 | 60 | 157 | 3.0 | 3.0 | 0.00 | 0.00 | 0.00 | 87 | 1009.2 |
| 20260901223638 | 60 | 112 | 3.0 | 4.0 | 0.00 | 0.00 | 0.00 | 88 | 1009.1 |
| 20260901223133 | 60 | 116 | 2.0 | 3.0 | 0.00 | 0.00 | 0.00 | 88 | 1009.3 |